STARLINK-1896 (46760 NORAD) Tracking and Keplerian Element Data

This shows tracking and keplerian element data for the satellite.

Feedback or suggestion? Click here.




ElementValue
Catalog46760
NameSTARLINK-1896
Epoch Orbit179
Epoch Day17.91667824
Epoch Year2021
RAAN121.7706
Inclination53.0558
Eccentricity0.0001118
Argument of Perigee67.9045
Mean Anonmoly326.4259
Mean Motion15.06409583
Decay Rate-0.0003643
L11 46760U 20074X 21017.91667824 -.00036430 00000-0 -24387-2 0 9994
L22 46760 53.0558 121.7706 0001118 67.9045 326.4259 15.06409583 1796

Live tracking and technical data element details for STARLINK-1896 (NORAD 46760). STARLINK-1896 can be tracked NOW for your location showing map with azimuth and elevation plus other details from your city location.

Track the satellite on the map from your city or location and see movement details for azimuth, elevation, latitude, longitude, range, height, and movement on the map or in text.







IsCatalogInMostPopularTable: catalog: 46760, numindb: 29
Update: records affected: 1



GetName: 46760 STARLINK-1896

Hit Count: updated at: Mon, 18 Jan 2021 16:14:10 GMT